| time (UTC) | temp F | wind direction | speed knots | gust knots | rain 1hr in | rain 24hr in | rain mn in | humidity % | barometer mb |
| 20260507212731 | 52 | 111 | 1.7 | 10.4 | 0.00 | 0.00 | 0.00 | 44 | 1010.0 |
| 20260507211733 | 53 | 294 | 3.5 | 9.6 | 0.00 | 0.00 | 0.00 | 45 | 1010.0 |
| 20260507210732 | 53 | 239 | 1.7 | 9.6 | 0.00 | 0.00 | 0.00 | 43 | 1010.0 |
| 20260507205733 | 53 | 192 | 3.5 | 10.4 | 0.00 | 0.00 | 0.00 | 43 | 1010.0 |
| 20260507204726 | 53 | 69 | 4.3 | 12.2 | 0.00 | 0.00 | 0.00 | 43 | 1010.1 |
| 20260507203724 | 53 | 265 | 3.5 | 13.9 | 0.00 | 0.00 | 0.00 | 42 | 1009.9 |
| 20260507202725 | 52 | 254 | 3.5 | 12.2 | 0.00 | 0.00 | 0.00 | 43 | 1010.2 |
| 20260507201726 | 52 | 325 | 4.3 | 13.9 | 0.00 | 0.00 | 0.00 | 43 | 1010.4 |
| 20260507200727 | 51 | 319 | 3.5 | 10.4 | 0.00 | 0.00 | 0.00 | 44 | 1010.4 |
| 20260507195725 | 51 | 13 | 3.5 | 12.2 | 0.00 | 0.00 | 0.00 | 44 | 1010.5 |
| 20260507194726 | 51 | 252 | 4.3 | 13.9 | 0.00 | 0.00 | 0.00 | 43 | 1010.6 |
| 20260507193724 | 51 | 5 | 3.5 | 13.9 | 0.00 | 0.00 | 0.00 | 44 | 1010.6 |
| 20260507192741 | 54 | 281 | 3.5 | 7.8 | 0.00 | 0.00 | 0.00 | 41 | 1010.5 |
| 20260507191727 | 53 | 283 | 3.5 | 13.9 | 0.00 | 0.00 | 0.00 | 46 | 1010.6 |
| 20260507190721 | 52 | 213 | 1.7 | 9.6 | 0.00 | 0.00 | 0.00 | 44 | 1010.5 |
| 20260507185718 | 51 | 254 | 3.5 | 17.4 | 0.00 | 0.00 | 0.00 | 47 | 1010.7 |
| 20260507184721 | 51 | 323 | 3.5 | 13.9 | 0.00 | 0.00 | 0.00 | 47 | 1010.6 |
| 20260507183719 | 52 | 324 | 3.5 | 7.8 | 0.00 | 0.00 | 0.00 | 46 | 1010.6 |
| 20260507182717 | 52 | 240 | 4.3 | 13.9 | 0.00 | 0.00 | 0.00 | 47 | 1010.7 |
| 20260507181720 | 51 | 286 | 3.5 | 12.2 | 0.00 | 0.00 | 0.00 | 47 | 1010.8 |
| 20260507180721 | 51 | 229 | 3.5 | 12.2 | 0.00 | 0.00 | 0.00 | 45 | 1010.7 |
| 20260507175719 | 51 | 256 | 3.5 | 10.4 | 0.00 | 0.00 | 0.00 | 49 | 1010.8 |
| 20260507174713 | 51 | 326 | 3.5 | 12.2 | 0.00 | 0.00 | 0.00 | 48 | 1010.9 |
| 20260507173714 | 51 | 333 | 3.5 | 12.2 | 0.00 | 0.00 | 0.00 | 49 | 1010.9 |
| 20260507172715 | 51 | 305 | 3.5 | 9.6 | 0.00 | 0.00 | 0.00 | 48 | 1011.1 |
| 20260507171714 | 51 | 288 | 3.5 | 10.4 | 0.00 | 0.00 | 0.00 | 50 | 1011.1 |
| 20260507170714 | 51 | 329 | 3.5 | 13.9 | 0.00 | 0.00 | 0.00 | 50 | 1011.2 |
| 20260507165714 | 50 | 307 | 3.5 | 9.6 | 0.00 | 0.00 | 0.00 | 49 | 1011.3 |
| 20260507164712 | 52 | 331 | 3.5 | 13.9 | 0.00 | 0.00 | 0.00 | 47 | 1011.2 |
| 20260507163716 | 50 | 250 | 4.3 | 10.4 | 0.00 | 0.00 | 0.00 | 49 | 1011.2 |
| 20260507162713 | 51 | 0 | 3.5 | 7.8 | 0.00 | 0.00 | 0.00 | 50 | 1011.3 |
| 20260507161715 | 50 | 120 | 3.5 | 9.6 | 0.00 | 0.00 | 0.00 | 48 | 1011.1 |
| 20260507160713 | 51 | 334 | 3.5 | 12.2 | 0.00 | 0.00 | 0.00 | 48 | 1011.3 |
| 20260507155715 | 50 | 175 | 1.7 | 6.1 | 0.00 | 0.00 | 0.00 | 49 | 1011.2 |
| 20260507154714 | 51 | 315 | 1.7 | 4.3 | 0.00 | 0.00 | 0.00 | 47 | 1011.1 |
| 20260507153714 | 51 | 259 | 3.5 | 10.4 | 0.00 | 0.00 | 0.00 | 50 | 1011.1 |
| 20260507152717 | 52 | 246 | 3.5 | 7.8 | 0.00 | 0.00 | 0.00 | 48 | 1011.1 |
| 20260507151712 | 51 | 157 | 1.7 | 7.8 | 0.00 | 0.00 | 0.00 | 49 | 1011.0 |
| 20260507150716 | 50 | 338 | 3.5 | 9.6 | 0.00 | 0.00 | 0.00 | 50 | 1011.1 |
| 20260507145715 | 50 | 271 | 3.5 | 9.6 | 0.00 | 0.00 | 0.00 | 49 | 1011.2 |
| 20260507144716 | 51 | 161 | 1.7 | 6.1 | 0.00 | 0.00 | 0.00 | 49 | 1011.2 |
| 20260507143716 | 50 | 325 | 3.5 | 9.6 | 0.00 | 0.00 | 0.00 | 50 | 1011.2 |
| 20260507142712 | 51 | 218 | 3.5 | 7.8 | 0.00 | 0.00 | 0.00 | 49 | 1011.2 |
| 20260507141708 | 51 | 171 | 3.5 | 7.8 | 0.00 | 0.00 | 0.00 | 53 | 1011.1 |
| 20260507140709 | 50 | 207 | 1.7 | 6.1 | 0.00 | 0.00 | 0.00 | 52 | 1011.3 |
| 20260507135708 | 50 | 329 | 1.7 | 9.6 | 0.00 | 0.00 | 0.00 | 53 | 1011.4 |
| 20260507134710 | 49 | 177 | 1.7 | 6.1 | 0.00 | 0.00 | 0.00 | 54 | 1011.5 |
| 20260507133705 | 49 | 226 | 1.7 | 9.6 | 0.00 | 0.00 | 0.00 | 55 | 1011.5 |
| 20260507132706 | 48 | 215 | 1.7 | 7.8 | 0.00 | 0.00 | 0.00 | 55 | 1011.5 |
| 20260507131705 | 48 | 146 | 0.0 | 3.5 | 0.00 | 0.00 | 0.00 | 55 | 1011.5 |
| 20260507130702 | 48 | 188 | 1.7 | 6.1 | 0.00 | 0.00 | 0.00 | 57 | 1011.6 |
| 20260507125704 | 47 | 316 | 0.0 | 3.5 | 0.00 | 0.00 | 0.00 | 59 | 1011.5 |
| 20260507124703 | 47 | 223 | 0.0 | 1.7 | 0.00 | 0.00 | 0.00 | 62 | 1011.5 |
| 20260507123704 | 46 | 288 | 0.0 | 3.5 | 0.00 | 0.00 | 0.00 | 62 | 1011.5 |
| 20260507122702 | 45 | 213 | 0.0 | 3.5 | 0.00 | 0.00 | 0.00 | 66 | 1011.5 |
| 20260507121707 | 44 | 319 | 0.0 | 3.5 | 0.00 | 0.00 | 0.00 | 71 | 1011.5 |
| 20260507120658 | 42 | 314 | 0.0 | 0.0 | 0.00 | 0.00 | 0.00 | 76 | 1011.6 |
| 20260507115658 | 41 | 314 | 0.0 | 1.7 | 0.00 | 0.00 | 0.00 | 82 | 1011.7 |
| 20260507114657 | 38 | 314 | 0.0 | 0.0 | 0.00 | 0.00 | 0.00 | 86 | 1011.6 |
| 20260507113657 | 37 | 314 | 0.0 | 0.0 | 0.00 | 0.00 | 0.00 | 83 | 1011.5 |
| 20260507112658 | 36 | 314 | 0.0 | 0.0 | 0.00 | 0.00 | 0.00 | 82 | 1011.4 |
| 20260507111658 | 36 | 314 | 0.0 | 0.0 | 0.00 | 0.00 | 0.00 | 82 | 1011.4 |
| 20260507110700 | 37 | 314 | 0.0 | 0.0 | 0.00 | 0.00 | 0.00 | 82 | 1011.3 |
| 20260507105654 | 37 | 314 | 0.0 | 0.0 | 0.00 | 0.00 | 0.00 | 82 | 1011.2 |
| 20260507104658 | 37 | 314 | 0.0 | 0.0 | 0.00 | 0.00 | 0.00 | 81 | 1011.2 |
| 20260507103652 | 37 | 314 | 0.0 | 0.0 | 0.00 | 0.00 | 0.00 | 81 | 1011.1 |
| 20260507102655 | 37 | 314 | 0.0 | 0.0 | 0.00 | 0.00 | 0.00 | 80 | 1011.0 |
| 20260507101659 | 37 | 314 | 0.0 | 0.0 | 0.00 | 0.00 | 0.00 | 80 | 1011.0 |
| 20260507100656 | 38 | 314 | 0.0 | 0.0 | 0.00 | 0.00 | 0.00 | 80 | 1011.0 |
| 20260507095700 | 38 | 314 | 0.0 | 0.0 | 0.00 | 0.00 | 0.00 | 79 | 1011.1 |
| 20260507094655 | 38 | 314 | 0.0 | 0.0 | 0.00 | 0.00 | 0.00 | 79 | 1011.1 |
| 20260507093712 | 38 | 314 | 0.0 | 0.0 | 0.00 | 0.00 | 0.00 | 78 | 1011.2 |
| 20260507092657 | 38 | 314 | 0.0 | 0.0 | 0.00 | 0.00 | 0.00 | 78 | 1011.1 |
| 20260507091658 | 38 | 314 | 0.0 | 0.0 | 0.00 | 0.00 | 0.00 | 78 | 1011.2 |
| 20260507090652 | 38 | 314 | 0.0 | 0.0 | 0.00 | 0.00 | 0.00 | 78 | 1011.2 |
| 20260507085655 | 38 | 314 | 0.0 | 0.0 | 0.00 | 0.00 | 0.00 | 78 | 1011.4 |
| 20260507084654 | 38 | 314 | 0.0 | 0.0 | 0.00 | 0.00 | 0.00 | 76 | 1011.4 |
| 20260507083658 | 38 | 314 | 0.0 | 0.0 | 0.00 | 0.00 | 0.00 | 76 | 1011.4 |
| 20260507082654 | 39 | 314 | 0.0 | 0.0 | 0.00 | 0.00 | 0.00 | 76 | 1011.3 |
| 20260507081651 | 39 | 314 | 0.0 | 0.0 | 0.00 | 0.00 | 0.00 | 75 | 1011.3 |
| 20260507080657 | 39 | 314 | 0.0 | 0.0 | 0.00 | 0.00 | 0.00 | 74 | 1011.3 |
| 20260507075654 | 39 | 314 | 0.0 | 0.0 | 0.00 | 0.00 | 0.00 | 73 | 1011.2 |
| 20260507074652 | 40 | 314 | 0.0 | 0.0 | 0.00 | 0.00 | 0.00 | 71 | 1011.2 |
| 20260507073649 | 40 | 314 | 0.0 | 0.0 | 0.00 | 0.00 | 0.00 | 70 | 1011.2 |
| 20260507072653 | 41 | 314 | 0.0 | 0.0 | 0.00 | 0.00 | 0.00 | 69 | 1011.3 |
| 20260507071650 | 41 | 314 | 0.0 | 0.0 | 0.00 | 0.00 | 0.00 | 68 | 1011.3 |
| 20260507070648 | 41 | 314 | 0.0 | 0.0 | 0.00 | 0.00 | 0.00 | 68 | 1011.4 |
| 20260507065646 | 42 | 314 | 0.0 | 0.0 | 0.00 | 0.00 | 0.00 | 67 | 1011.4 |
| 20260507064649 | 42 | 314 | 0.0 | 0.0 | 0.00 | 0.00 | 0.00 | 67 | 1011.3 |
| 20260507063645 | 42 | 314 | 0.0 | 0.0 | 0.00 | 0.00 | 0.00 | 67 | 1011.4 |
| 20260507062652 | 42 | 314 | 0.0 | 0.0 | 0.00 | 0.00 | 0.00 | 66 | 1011.4 |
| 20260507061643 | 43 | 314 | 0.0 | 0.0 | 0.00 | 0.00 | 0.00 | 65 | 1011.5 |
| 20260507060642 | 44 | 314 | 0.0 | 0.0 | 0.00 | 0.00 | 0.00 | 64 | 1011.6 |
| 20260507055640 | 44 | 314 | 0.0 | 1.7 | 0.00 | 0.00 | 0.00 | 62 | 1011.5 |
| 20260507054644 | 45 | 314 | 0.0 | 0.0 | 0.00 | 0.00 | 0.00 | 61 | 1011.5 |
| 20260507053641 | 45 | 314 | 0.0 | 0.0 | 0.00 | 0.00 | 0.00 | 60 | 1011.5 |
| 20260507052642 | 46 | 314 | 0.0 | 1.7 | 0.00 | 0.00 | 0.00 | 60 | 1011.5 |
| 20260507051639 | 46 | 314 | 0.0 | 3.5 | 0.00 | 0.00 | 0.00 | 59 | 1011.6 |
| 20260507050642 | 45 | 199 | 0.0 | 0.0 | 0.00 | 0.00 | 0.00 | 61 | 1011.7 |
| 20260507045642 | 45 | 199 | 0.0 | 1.7 | 0.00 | 0.00 | 0.00 | 63 | 1011.6 |
| 20260507044636 | 46 | 199 | 0.0 | 0.0 | 0.00 | 0.00 | 0.00 | 63 | 1011.7 |
| 20260507043633 | 46 | 199 | 0.0 | 0.0 | 0.00 | 0.00 | 0.00 | 60 | 1011.6 |
| 20260507042635 | 46 | 199 | 0.0 | 0.0 | 0.00 | 0.00 | 0.00 | 60 | 1011.7 |
| 20260507041633 | 47 | 199 | 0.0 | 0.0 | 0.00 | 0.00 | 0.00 | 59 | 1011.7 |
| 20260507040636 | 47 | 199 | 0.0 | 0.0 | 0.00 | 0.00 | 0.00 | 59 | 1011.6 |
| 20260507035635 | 47 | 199 | 0.0 | 1.7 | 0.00 | 0.00 | 0.00 | 59 | 1011.7 |
| 20260507034632 | 47 | 199 | 0.0 | 1.7 | 0.00 | 0.00 | 0.00 | 59 | 1011.7 |
| 20260507033630 | 47 | 199 | 0.0 | 1.7 | 0.00 | 0.00 | 0.00 | 59 | 1011.8 |
| 20260507032632 | 47 | 199 | 0.0 | 1.7 | 0.00 | 0.00 | 0.00 | 60 | 1011.8 |
| 20260507031624 | 47 | 199 | 0.0 | 0.0 | 0.00 | 0.00 | 0.00 | 61 | 1011.8 |
| 20260507030623 | 47 | 199 | 0.0 | 1.7 | 0.00 | 0.00 | 0.00 | 59 | 1012.1 |
| 20260507025625 | 48 | 199 | 0.0 | 1.7 | 0.00 | 0.00 | 0.00 | 59 | 1012.1 |
| 20260507024626 | 48 | 199 | 0.0 | 0.0 | 0.00 | 0.00 | 0.00 | 59 | 1011.9 |
| 20260507023622 | 48 | 199 | 0.0 | 1.7 | 0.00 | 0.00 | 0.00 | 60 | 1011.9 |
| 20260507022623 | 48 | 199 | 0.0 | 0.0 | 0.00 | 0.00 | 0.00 | 60 | 1011.9 |
| 20260507021626 | 48 | 199 | 0.0 | 0.0 | 0.00 | 0.00 | 0.00 | 60 | 1011.8 |
| 20260507020625 | 48 | 199 | 0.0 | 1.7 | 0.00 | 0.00 | 0.00 | 59 | 1011.7 |
| 20260507015632 | 48 | 199 | 0.0 | 0.0 | 0.00 | 0.00 | 0.00 | 59 | 1011.6 |
| 20260507014624 | 48 | 199 | 0.0 | 0.0 | 0.00 | 0.00 | 0.00 | 58 | 1011.6 |
| 20260507013616 | 48 | 199 | 0.0 | 0.0 | 0.00 | 0.00 | 0.00 | 58 | 1011.5 |
| 20260507012620 | 49 | 199 | 0.0 | 3.5 | 0.00 | 0.00 | 0.00 | 56 | 1011.5 |
| 20260507011620 | 49 | 199 | 0.0 | 0.0 | 0.00 | 0.00 | 0.00 | 56 | 1011.5 |
| 20260507010619 | 49 | 199 | 0.0 | 1.7 | 0.00 | 0.00 | 0.00 | 55 | 1011.6 |
| 20260507005620 | 49 | 199 | 0.0 | 1.7 | 0.00 | 0.00 | 0.00 | 54 | 1011.5 |
| 20260507004618 | 49 | 199 | 0.0 | 1.7 | 0.00 | 0.00 | 0.00 | 54 | 1011.5 |
| 20260507003616 | 49 | 199 | 0.0 | 1.7 | 0.00 | 0.00 | 0.00 | 52 | 1011.5 |
| 20260507002618 | 49 | 199 | 0.0 | 3.5 | 0.00 | 0.00 | 0.00 | 52 | 1011.4 |
| 20260507001615 | 50 | 208 | 0.0 | 1.7 | 0.00 | 0.00 | 0.00 | 52 | 1011.4 |
| 20260507000618 | 50 | 208 | 0.0 | 1.7 | 0.00 | 0.00 | 0.00 | 52 | 1011.4 |
| 20260506235619 | 50 | 175 | 0.0 | 3.5 | 0.00 | 0.00 | 0.00 | 52 | 1011.3 |
| 20260506234615 | 50 | 216 | 0.0 | 3.5 | 0.00 | 0.00 | 0.00 | 52 | 1011.3 |
| 20260506233616 | 50 | 350 | 0.0 | 3.5 | 0.00 | 0.00 | 0.00 | 51 | 1011.2 |
| 20260506232616 | 50 | 194 | 1.7 | 4.3 | 0.00 | 0.00 | 0.00 | 50 | 1011.2 |
| 20260506231619 | 50 | 186 | 0.0 | 4.3 | 0.00 | 0.00 | 0.00 | 50 | 1011.2 |
| 20260506230616 | 51 | 283 | 1.7 | 6.1 | 0.00 | 0.00 | 0.00 | 49 | 1011.1 |
| 20260506225615 | 51 | 321 | 1.7 | 6.1 | 0.00 | 0.00 | 0.00 | 48 | 1011.2 |
| 20260506224612 | 51 | 20 | 1.7 | 9.6 | 0.00 | 0.00 | 0.00 | 48 | 1011.3 |
| 20260506223612 | 51 | 192 | 1.7 | 12.2 | 0.00 | 0.00 | 0.00 | 48 | 1011.2 |
| 20260506222614 | 51 | 159 | 1.7 | 7.8 | 0.00 | 0.00 | 0.00 | 48 | 1011.4 |
| 20260506221617 | 50 | 305 | 1.7 | 4.3 | 0.00 | 0.00 | 0.00 | 48 | 1011.4 |
| 20260506220616 | 50 | 325 | 0.0 | 4.3 | 0.00 | 0.00 | 0.00 | 50 | 1011.4 |
| 20260506215612 | 51 | 319 | 1.7 | 6.1 | 0.00 | 0.00 | 0.00 | 48 | 1011.3 |
| 20260506214615 | 50 | 340 | 1.7 | 4.3 | 0.00 | 0.00 | 0.00 | 49 | 1011.4 |
| 20260506213612 | 51 | 324 | 1.7 | 6.1 | 0.00 | 0.00 | 0.00 | 48 | 1011.3 |